#timestamp,LO_Frequency,Hit,StdDev 
1663581615.2,286047000.3,N
1663581635.0,286047000.4,N
1663581635.9,286047000.4,N
1663581655.8,286047000.6,N
1663581675.6,286047001.1,N
1663581695.4,286046998.3,N
1663581715.3,286046998.8,N
1663581735.1,286046998.1,N
1663581755.8,286047001.0,N
1663581775.7,286047000.4,N
1663581795.5,286047000.1,N
1663581815.4,286046999.9,N
1663581835.2,286047000.8,N
1663581855.0,286047000.6,N
1663581855.9,286047000.6,N
1663581875.8,286047002.8,N
1663581895.6,286047000.5,N
1663581915.5,286047000.3,N
1663581935.3,286047000.1,N
1663581955.1,286047000.1,N
1663581975.9,286046999.8,N
1663581995.7,286046999.7,N
1663582015.6,286047001.2,N
1663582035.4,286046998.6,N
1663582055.2,286046998.5,N
1663582075.1,286046998.3,N
1663582076.0,286046998.3,N
1663582095.8,286046999.3,N
1663582115.7,286046998.9,N
1663582135.5,286047000.3,N
1663582155.3,286046999.8,N
1663582175.2,286046999.7,N
1663582195.0,286047001.9,N
1663582195.9,286047001.9,N
1663582215.7,286047002.3,N
1663582235.6,286047002.3,N
1663582255.4,286047002.3,N
1663582275.3,286047000.2,N
1663582295.1,286047002.4,N
1663582296.0,286047002.4,N
1663582315.8,286046999.8,N
1663582335.7,286047001.8,N
1663582355.5,286047001.5,N
1663582375.3,286047002.5,N
1663582395.2,286047002.1,N
1663582415.0,286047002.4,N
1663582415.9,286047002.4,N
1663582435.8,286047002.3,N
1663582455.6,286047004.3,N
1663582475.4,286047004.4,N
1663582495.3,286047004.0,N
1663582515.1,286047003.7,N
1663582535.9,286047003.8,N
1663582555.7,286047004.3,N
1663582575.5,286047003.3,N
1663582595.4,286047005.7,Y
1663582615.2,286047004.2,P
1663582635.0,286047003.9,P
1663582636.0,286047003.9,P
1663582655.8,286047004.2,Y
1663582675.6,286046998.3,P
1663582695.5,286046998.7,N
1663582715.3,286046998.8,N
1663582735.1,286046997.6,N
1663582755.9,286046995.1,N
1663582775.7,286046995.5,N
1663582795.6,286046997.4,N
1663582815.4,286046997.0,N
1663582835.2,286046996.9,N
1663582855.1,286046996.7,N
1663582856.0,286046996.7,N
1663582875.8,286046999.2,N
1663582895.6,286046996.6,N
1663582915.5,286046998.9,N
1663582935.3,286046998.6,N
1663582955.2,286046998.1,N
1663582975.9,286046998.1,N
1663582995.7,286046998.4,N
1663583015.6,286047000.6,N
1663583035.4,286047001.1,N
1663583055.3,286047000.7,N
1663583075.1,286047000.4,N
1663583076.0,286047000.4,N
1663583095.8,286046998.2,N
1663583115.7,286046998.4,N
1663583135.5,286047001.1,N
1663583155.3,286046998.5,N
1663583175.2,286047001.2,N
1663583195.0,286046999.8,N
1663583195.9,286046999.8,N
1663583215.8,286047000.7,N
1663583235.6,286046999.9,N
1663583255.4,286047000.5,N
1663583275.3,286046998.2,N
1663583295.1,286046999.2,N
1663583315.9,286046999.6,N
1663583335.7,286046996.5,N
1663583355.5,286046998.3,N
1663583375.4,286047000.8,N
1663583395.2,286047002.1,N
1663583415.1,286047000.4,N
1663583416.0,286047000.4,N
1663583435.8,286047000.0,N
1663583455.6,286047000.5,N
1663583475.5,286047000.2,N
1663583495.3,286047000.3,N
1663583515.1,286046999.9,N
1663583535.9,286047002.7,N
1663583555.7,286047000.8,N
1663583575.6,286047001.2,N
1663583595.4,286046998.2,N
1663583615.2,286046998.2,N
1663583635.1,286046998.5,N
1663583636.0,286046998.5,N
1663583655.8,286046998.2,N
1663583675.6,286046998.4,N
1663583695.5,286046998.2,N
1663583715.3,286046998.9,N
1663583735.2,286046998.5,N
1663583755.9,286046998.1,N
1663583775.7,286047001.1,N
1663583795.6,286046998.4,N
1663583815.4,286047001.2,N
1663583835.2,286046996.9,N
1663583855.1,286046996.6,N
1663583856.0,286046996.6,N
1663583875.8,286046999.4,N
1663583895.7,286046998.9,N
1663583915.5,286046999.6,N
1663583935.3,286046998.6,N
1663583955.2,286046998.6,N
1663583975.0,286046999.5,N
1663583975.9,286046999.5,N
1663583995.7,286046996.6,N
1663584015.6,286046999.0,N
1663584035.4,286046998.1,N
1663584055.3,286046998.2,N
1663584075.1,286047001.1,N
1663584076.0,286047001.1,N
1663584095.8,286047001.2,N
1663584115.7,286046998.6,N
1663584135.5,286046998.6,N
1663584155.4,286046998.5,N
1663584175.2,286047000.8,N
1663584195.0,286047001.1,N
1663584195.9,286047001.1,N
1663584215.8,286047001.1,N
1663584235.6,286047001.2,N
1663584255.4,286047000.9,N
1663584275.3,286047000.5,N
1663584295.1,286047000.8,N
1663584315.9,286047000.7,N
1663584335.7,286046998.7,N
1663584355.5,286046998.8,N
1663584375.4,286047000.2,N
1663584395.2,286047000.9,N
1663584415.1,286047000.4,N
1663584416.0,286047000.4,N
1663584435.8,286046999.9,N
1663584455.6,286047002.8,N
1663584475.5,286047000.2,N
1663584495.3,286047001.2,N
1663584515.1,286047000.2,N
1663584535.9,286047002.3,N
1663584555.7,286046999.9,N
1663584575.6,286047001.9,N
1663584595.4,286047001.5,N
1663584615.2,286047002.4,N
1663584635.1,286047002.8,N
1663584636.0,286047002.8,N
1663584655.8,286046999.9,N
1663584675.6,286047000.2,N
1663584695.5,286047001.6,N
1663584715.3,286047002.5,N
1663584735.2,286046999.7,N
1663584755.9,286047002.6,N
1663584775.7,286047002.6,N
1663584795.6,286047001.6,N
1663584815.4,286047001.0,N
1663584835.2,286047000.6,N
1663584855.1,286047000.9,N
1663584856.0,286047000.9,N
1663584875.8,286047000.7,N
1663584895.7,286046999.9,N
1663584915.5,286047002.7,N
1663584935.3,286047001.6,N
1663584955.2,286047001.7,N
1663584975.0,286047002.0,N
1663584975.9,286047002.0,N
1663584995.8,286047002.3,N
1663585015.6,286047002.3,N
1663585035.4,286047002.0,N
1663585055.3,286047002.4,N
1663585075.1,286047002.1,N
1663585095.8,286047002.2,N
1663585115.7,286047002.5,N
1663585135.5,286047002.4,N
1663585155.4,286047001.5,N
1663585175.2,286047000.4,N
1663585195.0,286047000.8,N
1663585195.9,286047000.8,N
